Terug naar catalogus

STARLINK-30462

ActiefCommunicatieVLEO
NORAD 57902·PAYLOAD·🇺🇸 United States

Gelanceerd Sep 20, 2023 vanaf Cape Canaveral Space Force Station

Loading…

Volgende Passages (komende 24 uur)

TLE

VersSource: CelesTrak SupGP

Epoch: Sep 14, 2026, 22:30 UTC

1 57902C 23146M   26257.93798611 -.00013502  00000+0 -48903-3 0  2571
2 57902  43.0036 325.6359 0001544 266.1980 210.9050 15.27586042    18

Volg STARLINK-30462 in realtime met AllMySat

Download on the App Store